Location: Unspecified
(0.0000°N, 0.0000°E)
Time: 02:18:55
(UTC+00:00)

AO-85 - Pass Details

Date: 03 December 2021
Orbit: 521 x 762 km, 64.8° (Epoch: 12 March)

Event Time Altitude Azimuth Distance (km) Brightness Sun altitude
Exits shadow 04:09:25 50° 220° (SW) 782 ? -23.1°
Drops below altitude 10° 04:13:04 10° 171° (S) 1,906 ? -22.3°
Sets 04:15:15 0° 167° (SSE) 2,772 ? -21.8°
